Probability
0 0 0 0 0 0 0 0 0 0 0 0 0 0 0 0 0 0 0 0 0 0 0 0 0 0 0 0 0 0 0 0 0 0 0 0 0 0 0 0 0 0 0
0 0 0 0 0 0 0 0 0 0 0 0 0 0 0 0 0 0 0 0 0 0 0 0 0 0 0 0 0 0 0 0 0 0 0 0 0 0 0 0 0 0 0
0 0 0 0 0 0 0 0 0 0 0 0 0 0 0 0 0 0 0 0 0 0 0 0 0 0 0 0 0 0 0 0 0 0 0 0 0 0 0 0 0 0 0
0 0 0 0 0 0 0 0 0 0 0 0 0 0 0 0 0 0 0 0 0 0 0 0 0 0 0 0 0 0 0 0 0 0 0 0 0 0 0 0 0 0 0
0 0 0 0 0 0 0 0 0 0 0 0 0 0 0 0 0 0 0 0 0 0 0 0 0 0 0 0 0 0 0 0 0 0 0 0 0 0 0 0 0 0 0
0 0 0 0 0 0 0 0 0 0 0 0 0 0 0 0 0 0 0 0 0 0 0 0 0 0 0 0 0 0 0 0 0 0 0 0 0 0 0 0 0 0 0
0 0 0 0 0 0 0 0 0 0 0 0 0 0 0 0 0 0 0 0 0 0 0 0 0 0 0 0 0 0 0 0 0 0 0 0 0 0 0 0 0 0 0
0 0 0 0 0 0 0 0 0 0 0 0 0 0 0 0 0 0 0 0 0 0 0 0 0 0 0 0 0 0 0 0 0 0 0 0 0 0 0 0 0 0 0
0 0 0 0 0 0 0 0 0 0 0 0 0 0 0 0 0 0 0 0 0 0 0 0 0 0 0 0 0 0 0 0 0 0 0 0 0 0 0 0 0 0 0
0 0 0 0 0 0 0 0 0 0 0 0 0 0 0 0 0 0 0 0 0 0 0 0 0 0 0 0 0 0 0 0 0 0 0 0 0 0 0 0 0 0 0
0 0 0 0 0 0 0 0 0 0 0 0 0 0 0 0 0 0 0 0 0 0 0 0 0 0 0 0 0 0 0 0 0 0 0 0 0 0 0 0 0 0 0
0 0 0 0 0 0 0 0 0 0 0 0 0 0 0 0 0 0 0 0 0 0 0 0 0 0 0 0 0 0 0 0 0 0 0 0 0 0 0 0 0 0 0
0 0 0 0 0 0 0 0 0 0 0 0 0 0 0 0 0 0 0 0 0 0 0 0 0 0 0 0 0 0 0 0 0 0 0 0 0 0 0 0 0 0 0
0 0 0 0 0 0 0 0 0 0 0 0 0 0 0 0 0 0 0 0 0 0 0 0 0 0 0 0 0 0 0 0 0 0 0 0 0 0 0 0 0 0 0
0 0 0 0 0 0 0 0 0 0 0 0 0 0 0 0 0 0 0 0 0 0 0 0 0 0 0 0 0 0 0 0 0 0 0 0 0 0 0 0 0 0 0
0 0 0 0 0 0 0 0 0 0 0 0 0 0 0 0 0 0 0 0 0 0 0 0 0 0 0 0 0 0 0 0 0 0 0 0 0 0 0 0 0 0 0
0 0 0 0 0 0 0 0 0 0 0 0 0 0 0 0 0 0 0 0 0 0 0 0 0 0 0 0 0 0 0 0 0 0 0 0 0 0 0 0 0 0 0
0 0 0 0 0 0 0 0 0 0 0 0 0 0 0 0 0 0 0 0 0 0 0 0 0 0 0 0 0 0 0 0 0 0 0 0 0 0 0 0 0 0 0
0 0 0 0 0 0 0 0 0 0 0 0 0 0 0 0 0 0 0 0 0 0 0 0 0 0 0 0 0 0 0 0 0 0 0 0 0 0 0 0 0 0 0
0 0 0 0 0 0 0 0 0 0 0 0 0 0 0 0 0 0 0 0 0 0 0 0 0 0 0 0 0 0 0 0 0 0 0 0 0 0 0 0 0 0 0
0 0 0 0 0 0 0 0 0 0 0 0 0 0 0 0 0 0 0 0 0 0 0 0 0 0 0 0 0 0 0 0 0 0 0 0 0 0 0 0 0 0 0
0 0 0 0 0 0 0 0 0 0 0 0 0 0 0 0 0 0 0 0 0 0 0 0 0 0 0 0 0 0 0 0 0 0 0 0 0 0 0 0 0 0 0
0 0 0 0 0 0 0 0 0 0 0 0 0 0 0 0 0 0 0 0 0 0 0 0 0 0 0 0 0 0 0 0 0 0 0 0 0 0 0 0 0 0 0
0 0 0 0 0 0 0 0 0 0 0 0 0 0 0 0 0 0 0 0 0 0 0 0 0 0 0 0 0 0 0 0 0 0 0 0 0 0 0 0 0 0 0
0 0 0 0 0 0 0 0 0 0 0 0 0 0 0 0 0 0 0 0 0 0 0 0 0 0 0 0 0 0 0 0 0 0 0 0 0 0 0 0 0 0 0
0 0 0 0 0 0 0 0 0 0 0 0 0 0 0 0 0 0 0 0 0 0 0 0 0 0 0 0 0 0 0 0 0 0 0 0 0 0 0 0 0 0 0
Wind_Speed
3 2 2 2 1 1 1 2 2 2 2 2 2 2 2 2 3 3 3 3 3 3 3 3 3 3 2 2 2 2 3 2 4 4 3 4 4 4 4 4 3 3 4
2 2 2 2 2 2 2 2 1 2 2 2 2 2 2 3 3 3 4 4 4 4 3 3 4 2 3 2 2 3 3 2 3 5 4 4 4 4 4 4 3 3 3
2 2 2 3 3 2 3 2 2 2 2 2 2 2 3 3 3 4 4 4 4 4 4 4 4 3 4 3 3 3 3 2 2 3 4 3 3 3 4 4 3 3 3
3 2 2 3 3 3 3 2 2 2 2 2 2 3 3 3 3 4 3 3 3 4 4 4 4 5 5 4 4 4 3 2 3 3 3 3 3 3 3 3 3 3 3
3 3 3 3 3 2 3 3 2 2 2 2 2 3 3 3 3 3 3 3 4 4 3 4 4 5 6 5 4 4 3 3 3 3 3 3 3 2 3 3 4 3 3
2 3 3 3 3 3 3 3 3 3 3 2 2 3 3 3 5 6 4 3 3 4 4 4 4 4 6 7 7 6 5 5 5 4 4 4 5 4 3 3 3 2 3
2 3 4 4 3 4 3 3 3 3 3 3 3 3 3 5 7 6 5 3 3 4 4 4 3 4 4 4 6 6 6 7 7 5 5 6 5 4 3 3 3 3 4
3 3 4 4 4 4 3 3 3 3 3 3 3 3 3 5 7 7 6 3 3 3 4 4 5 4 4 4 4 4 5 5 7 5 5 5 4 4 4 4 3 3 4
3 4 4 4 4 4 4 4 4 3 3 3 3 3 4 5 7 7 5 2 3 3 4 4 4 5 7 6 4 5 5 5 6 7 7 6 6 5 3 1 1 2 3
4 4 4 4 4 4 4 4 4 3 4 4 4 3 4 4 6 6 5 2 3 3 3 3 5 6 7 6 5 5 6 5 3 4 5 5 4 4 5 4 4 3 3
4 4 4 4 4 4 4 3 4 3 3 3 4 4 3 4 6 6 6 2 3 3 3 3 4 8 8 7 6 5 7 5 3 3 3 3 2 3 3 3 3 4 4
4 4 4 4 4 3 3 4 3 3 3 3 4 4 3 3 4 6 7 6 5 4 4 3 4 8 8 8 6 7 7 4 2 2 3 3 3 3 3 3 4 4 5
4 4 4 4 4 3 3 3 3 3 2 3 3 4 4 3 4 7 7 8 8 5 4 6 7 8 7 5 6 7 4 2 2 3 4 4 3 3 2 2 3 3 4
4 5 4 4 4 3 3 3 2 3 3 3 3 4 4 4 4 3 4 4 6 5 3 4 6 6 5 4 4 4 3 3 3 4 4 3 2 2 2 2 2 2 2
4 4 4 4 4 4 3 3 4 3 4 4 3 3 4 5 6 9 6 4 3 3 3 1 1 2 2 2 2 2 2 2 3 3 3 2 2 2 2 2 2 2 3
4 4 4 3 3 3 4 5 6 6 7 8 7 6 5 8 11 11 10 9 7 5 2 1 2 2 2 3 3 3 2 2 3 3 2 3 3 3 2 2 2 3 3
4 4 3 3 3 3 3 4 5 7 8 8 8 8 8 10 10 10 9 8 6 4 1 1 2 2 3 3 3 3 3 3 3 3 3 3 3 2 2 2 2 3 3
4 4 3 3 3 3 3 3 3 4 6 6 7 10 10 10 10 10 8 6 3 3 1 2 2 3 3 3 3 3 3 3 2 3 3 3 3 3 3 3 3 4 3
4 3 3 3 3 3 3 3 3 4 4 5 5 6 8 9 9 9 7 2 2 2 2 3 3 3 3 3 3 3 3 3 3 3 3 3 3 3 3 4 4 5 4
3 5 4 3 3 3 3 3 3 4 4 4 4 5 5 4 4 4 3 2 2 3 3 3 3 3 3 4 3 3 3 3 3 3 3 3 3 3 4 4 4 4 4
3 4 4 3 3 3 3 3 3 4 4 4 4 6 8 4 4 4 4 3 3 3 3 4 4 4 4 3 3 3 4 4 3 3 3 3 3 3 3 3 4 4 4
3 3 3 3 3 3 3 3 3 4 4 5 5 6 8 4 4 4 4 4 3 3 3 4 4 4 4 3 3 3 4 4 4 3 3 3 3 4 3 3 3 4 3
3 3 4 3 3 4 4 3 3 3 4 4 5 5 4 4 4 4 5 5 4 4 4 3 4 4 4 4 4 4 4 5 4 4 4 4 4 4 3 4 4 4 4
3 3 4 4 3 3 4 4 4 4 4 4 4 4 4 4 5 5 5 5 5 4 4 4 4 6 7 5 4 4 4 5 4 4 5 5 5 4 4 4 4 5 4
3 3 3 4 4 4 4 4 4 4 4 4 5 5 5 5 5 5 5 5 5 5 6 5 5 5 7 8 7 6 7 8 7 5 4 4 5 5 5 5 4 4 4
4 4 4 3 4 4 4 4 4 5 5 5 5 5 5 5 5 5 5 5 5 6 6 5 6 7 8 7 8 9 9 9 8 7 5 4 5 5 4 4 4 4 4
Wind_Direction
357 356 354 327 314 305 265 257 256 259 250 238 242 241 240 246 234 223 232 228 231 244 246 238 248 253 250 252 258 260 256 245 260 285 292 302 300 300 308 298 294 292 294
351 2 360 352 350 337 309 294 285 269 259 250 249 252 253 249 244 234 236 232 230 236 242 244 249 252 256 255 249 252 254 251 254 276 293 302 299 294 302 298 299 295 290
355 7 4 360 352 334 320 316 303 282 275 268 254 254 257 257 252 248 240 237 236 237 234 236 244 242 251 261 256 250 253 264 267 268 284 297 303 305 311 304 296 293 295
356 1 355 344 334 323 322 323 310 297 286 280 274 269 265 262 260 257 251 246 243 243 238 235 235 233 240 248 248 250 252 259 269 271 279 291 295 303 305 298 300 297 298
357 355 337 332 334 337 335 331 325 318 306 291 283 281 275 263 259 261 253 245 247 250 250 245 242 245 247 248 248 245 236 237 248 261 266 280 283 294 285 295 285 296 287
356 346 341 340 341 341 332 332 332 325 318 311 295 287 284 276 279 278 277 251 252 250 254 254 252 246 253 257 260 254 242 235 238 241 250 257 265 271 280 284 293 308 289
352 348 347 343 338 332 331 335 327 318 318 308 299 295 289 287 290 286 283 269 254 255 254 252 255 254 249 253 258 259 257 257 248 239 243 251 258 255 258 274 280 284 270
348 344 343 341 335 331 332 329 322 316 307 299 297 295 294 292 298 294 292 283 264 259 254 247 249 254 249 255 256 258 259 259 257 247 243 252 255 251 241 246 259 279 290
343 336 334 332 329 329 325 318 314 310 305 298 293 294 292 294 298 299 304 282 272 270 265 257 254 256 260 261 253 256 265 270 272 266 263 263 263 256 243 227 244 275 279
327 322 323 326 324 320 315 310 310 305 301 301 299 294 288 292 299 305 312 295 286 286 281 273 266 269 267 260 248 245 255 262 268 275 273 277 272 259 244 225 217 227 254
320 322 325 325 318 311 311 310 311 307 306 305 303 305 299 298 302 308 312 299 281 284 281 280 277 281 278 266 259 249 261 269 257 249 252 260 265 260 253 244 232 224 231
326 327 325 322 318 319 318 316 315 311 309 308 308 309 307 305 307 306 306 299 297 276 274 276 276 282 282 277 270 273 271 264 250 244 246 247 251 255 260 255 250 244 243
331 326 321 321 320 324 320 317 318 317 308 306 303 303 310 312 306 309 303 298 296 287 273 280 286 285 282 275 277 280 272 253 244 251 251 250 250 252 257 269 268 265 269
326 322 323 324 324 327 318 308 304 304 302 301 302 302 303 305 306 306 300 297 293 292 289 290 287 285 286 290 287 281 271 258 250 254 260 259 254 245 241 246 252 261 273
321 320 321 322 320 321 317 302 298 286 282 292 292 292 299 301 303 310 313 306 302 294 307 300 301 309 301 304 305 300 288 279 266 268 263 267 261 252 254 244 228 222 234
321 322 321 319 317 318 317 317 311 305 310 309 307 305 301 304 312 313 315 315 314 316 329 289 281 278 281 288 288 291 283 283 282 270 261 255 256 257 261 258 241 228 238
306 307 309 312 312 314 314 314 318 325 327 326 324 322 320 321 322 322 322 326 327 335 334 278 273 273 277 279 281 280 281 283 279 272 263 257 255 257 258 255 245 244 247
305 304 304 302 301 301 299 298 299 306 316 318 325 327 329 331 330 331 332 342 340 347 311 276 274 274 275 277 277 281 284 285 282 277 270 264 255 251 252 250 245 245 247
306 306 305 302 298 295 295 295 293 290 292 302 314 321 327 326 329 335 342 348 312 307 308 300 289 283 279 276 275 275 275 273 276 274 270 267 260 255 253 250 247 249 240
303 303 303 298 297 298 297 294 292 290 291 295 299 307 317 326 328 328 332 310 293 287 287 289 289 284 282 278 274 274 275 274 272 266 265 263 263 259 257 255 250 246 242
301 303 304 299 290 289 289 286 287 288 289 292 294 300 313 315 307 305 304 294 280 280 283 284 285 284 278 278 279 276 274 274 271 268 265 262 257 259 262 260 256 249 248
293 296 296 291 293 290 287 283 281 282 287 291 300 307 314 317 305 303 301 300 288 278 273 274 279 278 274 274 275 276 272 272 273 275 274 271 267 262 257 257 262 260 248
290 293 295 294 293 294 295 290 285 285 288 290 296 302 306 300 297 297 297 297 293 286 282 276 277 280 278 273 266 261 263 266 266 261 261 263 263 263 262 257 256 259 249
282 282 286 291 292 289 289 290 288 288 289 291 292 292 293 294 294 293 294 295 295 289 281 278 275 277 281 282 275 268 264 267 267 256 250 251 255 255 252 255 256 250 243
279 277 278 279 281 284 286 287 288 289 288 288 288 290 292 293 293 294 294 295 297 296 292 285 282 280 279 279 279 277 275 276 274 267 254 248 251 248 245 246 246 246 238
279 274 274 274 274 275 277 281 285 286 286 286 285 285 287 288 289 291 293 295 297 297 297 294 286 284 282 280 278 279 278 278 274 267 254 248 245 243 238 240 239 237 230